Regional Weather Roundup
Issued by NWS

Home | Current Version | Previous Version | Graphics & Text | Print | Product List | Glossary On
Versions: 1 2 3 4 5 6 7 8 9 10 11 12 13 14 15 16 17 18 19 20 21 22 23 24 25 26 27 28 29 30 31 32 33 34 35 36 37 38 39 40 41 42 43 44 45 46 47 48 49 50
090
ASUS44 KLIX 230605
RWRLA
LOUISIANA WEATHER ROUNDUP
NATIONAL WEATHER SERVICE NEW ORLEANS LA
100 AM CDT SAT AUG 23 2014

NOTE: "FAIR" INDICATES FEW OR NO CLOUDS BELOW 12,000 FEET WITH NO
      SIGNIFICANT WEATHER AND/OR OBSTRUCTIONS TO VISIBILITY.
      SKY/WX - SKY CONDITION AND SIGNIFICANT WEATHER.
      TMP - AIR TEMPERATURE.    DP   - DEWPOINT TEMPERATURE.
      RH  - RELATIVE HUMIDITY.  PRES - PRESSURE.
      HX  - HEAT INDEX.         WCI  - WIND CHILL INDEX.

*  THESE STATIONS ARE NOT NWS OR FAA STATIONS AND ARE NOT UNDER
   NWS QUALITY CONTROL.

LAZ040-048-061>063-065-066-069-230700-
SOUTHEAST LOUISIANA

CITY           SKY/WX    TMP DP  RH WIND       PRES   REMARKS
N.O. AUDUBON     N/A     81  78  91 MISG        N/A
6HR MIN TEMP:  81; 6HR MAX TEMP:  91;

N.O. INTL ARPT FAIR      81  76  84 W6        30.02F
6HR MIN TEMP:  81; 6HR MAX TEMP:  89;

N.O. LAKEFRONT FAIR      85  76  74 SW10      30.02F
6HR MIN TEMP:  85; 6HR MAX TEMP:  90;

N.O. DOWNTOWN* FAIR      86  73  66 CALM      30.03S
6HR MIN TEMP:  84; 6HR MAX TEMP:  93;

SLIDELL        FAIR      78  74  87 CALM      30.01F
6HR MIN TEMP:  78; 6HR MAX TEMP:  89;

BATON ROUGE    FAIR      80  75  84 W3        30.02F
6HR MIN TEMP:  78; 6HR MAX TEMP:  91;

BOOTHVILLE     FAIR      84  77  79 S5        30.03F
6HR MIN TEMP:  82; 6HR MAX TEMP:  88;

BELLE CHASSE   FAIR      82  75  79 W5        30.02F
6HR MIN TEMP:  79; 6HR MAX TEMP:  90;

BOGALUSA*      FAIR      80  74  83 CALM      30.03F
6HR MIN TEMP:  80; 6HR MAX TEMP:  92;

GALLIANO*      NOT AVBL
NEW ROADS*     FAIR      76  75  96 CALM      30.02F
6HR MIN TEMP:  76; 6HR MAX TEMP:  89;

GONZALES*      FAIR      80  80 100 CALM      30.02F
6HR MIN TEMP:  79; 6HR MAX TEMP:  88;

HAMMOND*       FAIR      79  73  83 CALM      30.03F
HOUMA*         FAIR      77  74  89 CALM      30.02F FOG
6HR MIN TEMP:  77; 6HR MAX TEMP:  89;

PORT FOURCHON* PTCLDY    86  75  70 SW5       30.04S HX  95

$$

LAZ041-044-053-054-230700-
SOUTHWEST LOUISIANA

CITY           SKY/WX    TMP DP  RH WIND       PRES   REMARKS
LAKE CHARLES   FAIR      79  77  94 CALM      30.01F
6HR MIN TEMP:  79; 6HR MAX TEMP:  88;

LAFAYETTE      FAIR      81  76  84 CALM      30.02F
6HR MIN TEMP:  80; 6HR MAX TEMP:  90;

PATTERSON      MOCLDY    79  77  94 CALM      30.05
6HR MIN TEMP:  79; 6HR MAX TEMP:  84;

SALT POINT       N/A     88  78  72 SW3       30.01F HX 101
6HR MIN TEMP:  85; 6HR MAX TEMP:  89;

NEW IBERIA     FAIR      79  76  90 CALM      30.02F
6HR MIN TEMP:  78; 6HR MAX TEMP:  87;

CHENAULT AIRPK FAIR      82  75  81 CALM      30.02F
6HR MIN TEMP:  80; 6HR MAX TEMP:  89;


$$

LAZ027-028-230700-
CENTRAL LOUISIANA

CITY           SKY/WX    TMP DP  RH WIND       PRES   REMARKS
FORT POLK      FAIR      78  73  84 S3        30.02F
6HR MIN TEMP:  78; 6HR MAX TEMP:  88;

ALEXANDRIA INT FAIR      76  73  91 CALM      30.00F
6HR MIN TEMP:  75; 6HR MAX TEMP:  89;

ALEXANDRIA     FAIR      76  73  91 CALM      30.02S
6HR MIN TEMP:  75; 6HR MAX TEMP:  90;


$$

LAZ001-002-230700-
NORTHWEST LOUISIANA

CITY           SKY/WX    TMP DP  RH WIND       PRES   REMARKS
SHREVEPORT     FAIR      79  72  79 S5        29.99F
6HR MIN TEMP:  78; 6HR MAX TEMP:  92;

BARKSDALE AFB  FAIR      74  71  88 SE7       29.99F
6HR MIN TEMP:  74; 6HR MAX TEMP:  91;

DTN SHREVEPORT FAIR      82  71  69 S8        29.99F
6HR MIN TEMP:  82; 6HR MAX TEMP:  93;


$$

LAZ014-016-230700-
NORTHEAST LOUISIANA

CITY           SKY/WX    TMP DP  RH WIND       PRES   REMARKS
MONROE         FAIR      75  73  93 CALM      30.01F
6HR MIN TEMP:  74; 6HR MAX TEMP:  88;

TALLULAH       FAIR      74  72  93 CALM      30.01S
6HR MIN TEMP:  72; 6HR MAX TEMP:  88;


$$




USA.gov is the U.S. government's official web portal to all federal, state and local government web resources and services.